TimeEST,TemperatureF,Dew PointF,Humidity,Sea Level PressureIn,VisibilityMPH,Wind Direction,Wind SpeedMPH,Gust SpeedMPH,PrecipitationIn,Events,Conditions,WindDirDegrees,DateUTC
12:52 AM,24.1,21.0,88,30.37,10.0,Calm,Calm,-,N/A,,Clear,0,2011-11-22 05:52:00
2:37 AM,23.0,21.2,93,30.36,10.0,Calm,Calm,-,N/A,,Mostly Cloudy,0,2011-11-22 07:37:00
2:52 AM,25.0,21.9,88,30.38,10.0,Calm,Calm,-,N/A,,Overcast,0,2011-11-22 07:52:00
3:52 AM,25.0,21.9,88,30.39,10.0,Calm,Calm,-,N/A,,Mostly Cloudy,0,2011-11-22 08:52:00
4:00 AM,24.8,21.2,86,30.37,10.0,Calm,Calm,-,N/A,,Scattered Clouds,0,2011-11-22 09:00:00
4:52 AM,23.0,21.0,92,30.40,9.0,Calm,Calm,-,N/A,,Scattered Clouds,0,2011-11-22 09:52:00
5:02 AM,24.8,21.2,86,30.38,9.0,Calm,Calm,-,N/A,,Mostly Cloudy,0,2011-11-22 10:02:00
5:52 AM,27.0,25.0,92,30.40,10.0,Calm,Calm,-,N/A,,Overcast,0,2011-11-22 10:52:00
7:52 AM,30.0,27.0,88,30.41,10.0,Calm,Calm,-,N/A,,Overcast,0,2011-11-22 12:52:00
8:52 AM,33.1,28.0,82,30.42,10.0,Calm,Calm,-,N/A,,Mostly Cloudy,0,2011-11-22 13:52:00
9:52 AM,36.0,30.0,79,30.43,10.0,Calm,Calm,-,N/A,,Overcast,0,2011-11-22 14:52:00
10:52 AM,39.0,30.0,70,30.40,10.0,Calm,Calm,-,N/A,,Overcast,0,2011-11-22 15:52:00
11:52 AM,43.0,32.0,65,30.38,10.0,Calm,Calm,-,N/A,,Scattered Clouds,0,2011-11-22 16:52:00
12:52 PM,44.1,32.0,63,30.34,10.0,Calm,Calm,-,N/A,,Clear,0,2011-11-22 17:52:00
1:52 PM,45.0,32.0,60,30.33,10.0,Calm,Calm,-,N/A,,Clear,0,2011-11-22 18:52:00
2:52 PM,44.1,32.0,63,30.33,10.0,ESE,3.5,-,N/A,,Clear,110,2011-11-22 19:52:00
3:52 PM,43.0,33.1,68,30.32,10.0,Calm,Calm,-,N/A,,Clear,0,2011-11-22 20:52:00
5:52 PM,41.0,33.1,73,30.32,10.0,Calm,Calm,-,N/A,,Overcast,0,2011-11-22 22:52:00
6:52 PM,39.9,34.0,79,30.31,10.0,Calm,Calm,-,N/A,,Overcast,0,2011-11-22 23:52:00
7:10 PM,41.0,33.8,76,30.28,10.0,Calm,Calm,-,N/A,,Overcast,0,2011-11-23 00:10:00
7:52 PM,39.9,34.0,79,30.29,10.0,Calm,Calm,-,N/A,,Overcast,0,2011-11-23 00:52:00
8:50 PM,41.0,32.0,70,30.25,10.0,Calm,Calm,-,N/A,,Overcast,0,2011-11-23 01:50:00
8:52 PM,41.0,33.1,73,30.27,10.0,Calm,Calm,-,N/A,,Overcast,0,2011-11-23 01:52:00
9:52 PM,39.0,35.1,86,30.24,8.0,Calm,Calm,-,0.02,Rain,Light Rain,0,2011-11-23 02:52:00
11:03 PM,37.4,35.6,93,30.19,6.0,East,4.6,-,0.03,Rain,Rain,80,2011-11-23 04:03:00
11:35 PM,35.6,33.8,93,30.18,5.0,East,5.8,-,0.11,Rain,Rain,100,2011-11-23 04:35:00
11:52 PM,34.0,33.1,96,30.19,4.0,ENE,3.5,-,0.15,Snow,Light Snow,60,2011-11-23 04:52:00